#timestamp,LO_Frequency,Hit 
1498449615.3,286047003.2,N
1498449635.2,286047002.1,N
1498449655.9,286047002.7,N
1498449675.7,286047002.6,N
1498449695.6,286047002.8,N
1498449715.4,286047003.2,N
1498449735.2,286047006.2,N
1498449755.1,286047007.3,N
1498449756.0,286047007.3,N
1498449775.8,286047006.0,N
1498449795.6,286047001.9,N
1498449815.4,286047000.1,N
1498449835.3,286047000.8,N
1498449855.1,286046999.4,N
1498449875.8,286046999.3,N
1498449895.7,286046998.1,N
1498449915.5,286047002.3,N
1498449935.3,286047005.1,N
1498449955.2,286047004.1,N
1498449975.9,286047000.1,N
1498449995.7,286047000.6,N
1498450015.6,286046999.9,N
1498450035.4,286047002.4,N
1498450055.2,286047001.4,N
1498450075.0,286047001.5,N
1498450076.0,286047001.5,N
1498450095.8,286047005.8,N
1498450115.6,286047005.1,N
1498450135.4,286047005.9,N
1498450155.3,286047004.4,N
1498450175.1,286047001.9,N
1498450195.8,286047003.1,N
1498450215.7,286047005.2,N
1498450235.5,286047006.1,N
1498450255.3,286047008.6,N
1498450275.2,286047005.8,N
1498450295.9,286047001.6,N
1498450315.7,286047003.9,N
1498450335.6,286047003.1,N
1498450355.4,286047001.5,N
1498450375.2,286047003.7,N
1498450395.0,286047005.9,N
1498450395.9,286047005.9,N
1498450415.8,286047007.5,N
1498450435.6,286047005.1,N
1498450455.4,286047006.3,N
1498450475.3,286047006.8,N
1498450495.1,286047007.0,N
1498450515.8,286047006.4,N
1498450535.7,286047007.7,N
1498450555.5,286047008.0,N
1498450575.3,286047008.7,N
1498450595.2,286047010.3,N
1498450615.9,286047010.8,N
1498450635.7,286047010.4,N
1498450655.6,286047009.4,N
1498450675.4,286047010.1,N
1498450695.2,286047010.0,N
1498450715.0,286047009.3,N
1498450716.0,286047009.3,N
1498450735.8,286047008.1,N
1498450755.6,286047008.8,N
1498450775.4,286047009.1,N
1498450795.3,286047006.3,N
1498450815.1,286047006.3,N
1498450835.8,286047008.4,N
1498450855.7,286047008.1,N
1498450875.5,286047006.1,N
1498450895.3,286047006.4,N
1498450915.2,286047010.8,N
1498450935.9,286047008.2,N
1498450955.7,286047004.5,N
1498450975.6,286047005.3,N
1498450995.4,286047005.9,N
1498451015.2,286047001.8,N
1498451035.0,286047004.1,N
1498451036.0,286047004.1,N
1498451055.8,286047003.3,N
1498451075.6,286047004.3,N
1498451095.4,286047001.3,N
1498451115.3,286047000.9,N
1498451135.1,286046996.6,N
1498451155.8,286046998.2,N
1498451175.7,286046999.2,N
1498451195.5,286046996.9,N
1498451215.3,286046998.4,N
1498451235.2,286046998.9,N
1498451255.9,286046996.8,N
1498451275.7,286046997.0,N
1498451295.6,286046996.5,N
1498451315.4,286046997.8,N
1498451335.2,286046995.2,N
1498451355.0,286046995.2,N
1498451356.0,286046995.2,N
1498451375.8,286046995.1,N
1498451395.6,286046993.8,N
1498451415.4,286046993.4,N
1498451435.3,286046994.8,N
1498451455.1,286046993.7,N
1498451475.8,286046996.0,N
1498451495.7,286046999.3,N
1498451515.5,286047001.2,N
1498451535.3,286047001.1,N
1498451555.2,286047002.6,N
1498451575.9,286047002.3,N
1498451595.7,286047000.6,N
1498451615.6,286047002.1,N
1498451635.4,286047002.1,N
1498451655.2,286047003.8,N
1498451675.0,286047005.8,N
1498451675.9,286047005.8,N
1498451695.8,286047005.3,N
1498451715.6,286047003.3,N
1498451735.4,286047003.4,N
1498451755.3,286047003.9,N
1498451775.1,286047001.6,N
1498451795.8,286047005.8,N
1498451815.7,286047003.1,N
1498451835.5,286047004.1,N
1498451855.3,286047005.4,N
1498451875.2,286047006.4,N
1498451895.9,286047007.5,N
1498451915.7,286047006.6,N
1498451935.5,286047007.1,N
1498451955.4,286047004.7,N
1498451975.2,286047005.9,N
1498451995.0,286047005.2,N
1498451995.9,286047005.2,N
1498452015.8,286047004.7,N
1498452035.6,286047006.8,N
1498452055.4,286047006.7,N
1498452075.3,286047006.6,N
1498452095.1,286047007.2,N
1498452115.8,286047003.8,N
1498452135.7,286047002.5,N
1498452155.5,286047003.8,N
1498452175.3,286047006.7,N
1498452195.2,286047003.0,N
1498452215.9,286047005.5,N
1498452235.7,286047005.0,N
1498452255.6,286047006.1,N
1498452275.4,286047010.7,N
1498452295.2,286047008.0,N
1498452315.0,286047008.0,N
1498452315.9,286047008.0,N
1498452335.8,286047008.0,N
1498452355.6,286047007.9,N
1498452375.4,286047008.6,N
1498452395.3,286047008.7,N
1498452415.1,286047006.2,N
1498452435.8,286047007.2,N
1498452455.7,286047007.3,N
1498452475.5,286047007.2,N
1498452495.3,286047006.7,N
1498452515.2,286047002.9,N
1498452535.9,286047005.9,N
1498452555.7,286047002.9,N
1498452575.5,286047003.8,N
1498452595.4,286047002.6,N
1498452615.2,286047000.4,N
1498452635.0,286046999.5,N
1498452635.9,286046999.5,N
1498452655.8,286046998.5,N
1498452675.6,286047002.4,N
1498452695.4,286047002.0,N
1498452715.3,286047004.4,N
1498452735.1,286047005.8,N
1498452736.0,286047005.8,N
1498452755.8,286047004.9,N
1498452775.7,286047005.5,N
1498452795.5,286047006.8,N
1498452815.3,286047005.5,N
1498452835.2,286047005.5,N
1498452855.9,286047005.2,N
1498452875.7,286047005.3,N
1498452895.5,286047003.7,N
1498452915.4,286047006.0,N
1498452935.2,286047005.4,N
1498452955.0,286047007.3,N
1498452955.9,286047007.3,N
1498452975.8,286047004.6,N
1498452995.6,286047005.3,N
1498453015.4,286047003.1,N
1498453035.3,286047001.7,N
1498453055.1,286046999.9,N
1498453056.0,286046999.9,N
1498453075.8,286047000.0,N
1498453095.7,286046998.3,N
1498453115.5,286047001.0,N
1498453135.3,286046999.5,N
1498453155.1,286046998.9,N
1498453175.9,286046999.1,N
1498453195.7,286046998.2,N
